Location: Kellogg
(38.0159°N, 90.0546°W)
Time: 06:15:31
(UTC+00:00)

Hubble Space Telescope - Pass Details

Date: 20 August 2024
Orbit: 505 x 509 km, 28.5° (Epoch: 19 September)

Event Time Altitude Azimuth Distance (km) Brightness Sun altitude
Exits shadow 10:22:53 12° 210° (SSW) 1,574 2.7 -11.4°
Maximum altitude 10:23:48 13° 195° (SSW) 1,527 2.7 -11.2°
Drops below altitude 10° 10:25:40 10° 167° (SSE) 1,707 3.2 -10.9°
Sets 10:28:55 0° 139° (SE) 2,591 4.5 -10.3°
